Location: East Meadow
(40.7140°N, 73.5590°W)
Time: 12:22:06
(UTC+00:00)

H-2A R/B - Pass Details

Date: 05 April 2020
Orbit: 734 x 836 km, 98.2° (Epoch: 02 June)

Event Time Altitude Azimuth Distance (km) Brightness Sun altitude
Rises 23:41:46 0° 142° (SE) 3,312 4.8 -4.2°
Reaches altitude 10° 23:44:17 10° 134° (SE) 2,369 4.0 -4.6°
Maximum altitude 23:49:00 36° 69° (ENE) 1,237 2.7 -5.5°
Drops below altitude 10° 23:53:38 10° 5° (N) 2,322 4.6 -6.4°
Sets 23:56:04 0° 357° (N) 3,238 5.5 -6.8°
